BEIDOU-2 G7

Last updated on Wed Sep 09 2026 00:03:01 GMT+0000 (Coordinated Universal Time)

1 41586U 16037A 26251.46691992 -.00000373 00000+0 00000+0 0 9995 2 41586 1.9209 69.6432 0004491 356.0712 200.3809 1.00266239 7726
UTC large
Height (km)
Speed (km/s)
/
Latitude / Longitude
Inclination (degrees)
Orbital Period (minutes)
Azimuth
Elevation
Range (km)
Doppler Factor

Next 0 passes for location: London (51.5072 / 0.1276)

No passes found over London.
BEIDOU-2 G7